Regional Weather Roundup
Issued by NWS

Home | Current Version | Previous Version | Text Only | Print | Product List | Glossary On
Versions: 1 2 3 4 5 6 7 8 9 10 11 12 13 14 15 16 17 18 19 20 21 22 23 24 25 26 27 28 29 30 31 32 33 34 35 36 37 38 39 40 41 42 43 44 45 46 47 48 49 50
000
ASUS43 KBIS 261510
RWRND

NORTH DAKOTA REGIONAL WEATHER ROUNDUP
NATIONAL WEATHER SERVICE BISMARCK ND
1000 AM CDT WED APR 26 2017

NOTE: "FAIR" INDICATES FEW OR NO CLOUDS BELOW 12,000 FEET WITH NO
SIGNIFICANT WEATHER AND/OR OBSTRUCTIONS TO VISIBILITY.


NDZ001>003-009>011-017-261600-
NORTHWEST NORTH DAKOTA

CITY           SKY/WX    TMP DP  RH WIND       PRES   REMARKS
WILLISTON      FAIR      36  21  54 NE6       29.94F
MINOT          FAIR      36  23  59 N14       29.93S
MINOT AFB      MOSUNNY   34  22  61 N12       29.93F
$$

NDZ018>021-031>035-040>046-261600-
SOUTHWEST NORTH DAKOTA

CITY           SKY/WX    TMP DP  RH WIND       PRES   REMARKS
BISMARCK       CLOUDY    34  24  67 N14       29.88F
DICKINSON      FAIR      35  22  58 N10       29.87F
GARRISON         N/A     33  22  63 N9        29.90F
HETTINGER ARPT CLOUDY    33  22  63 N15       29.87F
$$

NDZ004>008-012>016-024-026-027-054-261600-
NORTHEAST NORTH DAKOTA

CITY           SKY/WX    TMP DP  RH WIND       PRES   REMARKS
GRAND FORKS    CLOUDY    31  24  75 NE21      29.84S WCI  18
GRND FRKS AFB  CLOUDY    30  23  74 NE20      29.84F WCI  18
DEVILS LAKE    CLOUDY    28  22  78 NE18      29.87F WCI  15
$$

NDZ022-023-025-028>030-036>039-047>053-261600-
SOUTHEAST NORTH DAKOTA

CITY           SKY/WX    TMP DP  RH WIND       PRES   REMARKS
FARGO          LGT SNOW  29  26  89 N20       29.76F FOG     WCI  16
JAMESTOWN      CLOUDY    29  25  85 N17       29.80F WCI  17
$$




USA.gov is the U.S. government's official web portal to all federal, state and local government web resources and services.